MOLNIYA 3-10

Last updated on Dec. 9, 2021, 12:02 a.m. UTC

1 11057U 78095A   21342.29825511 -.00000028  00000+0 -23710-3 0  9995
2 11057  62.8970 110.3771 5815096 308.0330  12.4408  4.09831534375897
UTC
Height (km)
Latitude
Longitude
Inclination
Orbital Period
UTC large
Height (km)
Speed (km/s)
/
Latitude / Longitude
Inclination (degrees)
Orbital Period (minutes)
Azimuth
Elevation
Range (km)
Doppler Factor
iOS Compass Heading
iOS Angle